Location: Gazon
(48.1318°N, 1.2708°W)
Time: 22:59:41
(UTC+00:00)

SPOT 3 Rocket - Pass Details

Date: 18 September 2020
Orbit: 780 x 794 km, 98.8° (Epoch: 25 October)

Event Time Altitude Azimuth Distance (km) Brightness Sun altitude
Exits shadow 20:03:39 33° 140° (SE) 1,289 4.2 -19.1°
Maximum altitude 20:05:53 64° 71° (ENE) 863 3.5 -19.4°
Drops below altitude 10° 20:11:00 10° 351° (N) 2,345 6.5 -20.2°
Sets 20:13:20 0° 348° (NNW) 3,279 7.3 -20.5°
